This demonstration page uses our WeatherBlox Daily Observations layout. Learn more.

Hourly Observations for September 29, 2020

Temp ( °F °C ) Dew Point ( °F °C ) Humidity (%) Winds ( mph kmh ) Pressure ( in mb ) Visibility ( mi km ) Precip ( " mm )
12:26 am 00:26 Clear with Mist and Fog 50 10 49 9.4 96 96 Calm 29.93 1013 1.75 2.816345 0 0
12:33 am 00:33 Clear with Mist and Fog 49 9.4 48 8.9 97 97 Calm 29.94 1014 0.75 1.207005 0 0
12:41 am 00:41 Clear with Mist and Fog 49 9.4 48 8.9 97 97 Calm 29.93 1014 1.75 2.816345 0 0
12:43 am 00:43 Clear with Mist and Fog 49 9.4 48 8.9 97 97 Calm 29.93 1014 3 4.82802 0 0
12:53 am 00:53 Clear 49 9.4 48 8.9 97 97 Calm 29.92 1013 9 14.48406 0 0
1:21 am 01:21 Clear with Mist and Fog 48 8.9 47 8.3 96 96 Calm 29.93 1014 1.75 2.816345 0 0
1:28 am 01:28 Clear with Mist and Fog 48 8.9 47 8.3 96 96 Calm 29.93 1014 0.75 1.207005 0 0
1:35 am 01:35 Mostly Cloudy with Fog 48 8.9 47 8.3 96 96 Calm 29.93 1014 0.25 0.402335 0 0
1:49 am 01:49 Mostly Clear with Mist and Fog 48 9 46 8 94 94 Calm 29.93 1014 1.25 2.011675 0 0
1:51 am 01:51 Mostly Clear with Mist and Fog 48 9 46 8 94 94 Calm 29.93 1014 2.5 4.02335 0 0
1:53 am 01:53 Mostly Clear with Mist and Fog 48 8.9 47 8.3 96 96 Calm 29.91 1013 2 3.21868 0 0
1:55 am 01:55 Mostly Clear with Mist and Fog 48 8.9 47 8.3 96 96 Calm 29.93 1014 1.5 2.41401 0 0
2:05 am 02:05 Clear with Mist and Fog 48 8.9 47 8.3 96 96 Calm 29.93 1014 2 3.21868 0 0
2:09 am 02:09 Clear with Mist and Fog 48 8.9 47 8.3 96 96 Calm 29.93 1014 0.75 1.207005 0 0
2:21 am 02:21 Mostly Cloudy with Fog 48 8.9 47 8.3 96 96 Calm 29.93 1014 0.5 0.80467 0 0
2:53 am 02:53 Mostly Cloudy with Fog 46 7.8 45 7.2 96 96 Calm 29.93 1013 0.5 0.80467 0 0
3:15 am 03:15 Mostly Clear with Mist and Fog 45 7.2 45 7.2 100 100 Calm 29.94 1014 1.75 2.816345 0 0
3:17 am 03:17 Mostly Clear with Mist and Fog 45 7.2 45 7.2 100 100 Calm 29.94 1014 3 4.82802 0 0
3:29 am 03:29 Mostly Clear with Mist and Fog 45 7.2 44 6.7 97 97 Calm 29.94 1014 1.75 2.816345 0 0
3:31 am 03:31 Mostly Cloudy with Mist and Fog 45 7.2 44 6.7 97 97 Calm 29.94 1014 1 1.60934 0 0
3:38 am 03:38 Mostly Cloudy with Fog 45 7.2 44 6.7 97 97 Calm 29.94 1014 0.25 0.402335 0 0
3:53 am 03:53 Mostly Cloudy with Fog 44 6.7 44 6.7 100 100 Calm 29.91 1013 0.5 0.80467 0 0
4:53 am 04:53 Mostly Cloudy with Fog 44 6.7 44 6.7 100 100 Calm 29.92 1013 0.5 0.80467 0 0
4:58 am 04:58 Mostly Cloudy with Mist and Fog 44 6.7 44 6.7 100 100 Calm 29.93 1013 2 3.21868 0 0
5:07 am 05:07 Mostly Cloudy with Mist and Fog 44 6.7 44 6.7 100 100 Calm 29.93 1013 3 4.82802 0 0
5:16 am 05:16 Mostly Clear with Mist and Fog 43 6.1 43 6.1 100 100 Calm 29.94 1014 3 4.82802 0 0
5:21 am 05:21 Mostly Clear with Mist and Fog 43 6.1 42 5.6 97 97 Calm 29.94 1014 1.75 2.816345 0 0
5:30 am 05:30 Mostly Clear with Mist and Fog 43 6.1 42 5.6 97 97 Calm 29.94 1014 1.5 2.41401 0 0
5:38 am 05:38 Partly Cloudy with Mist and Fog 43 6.1 43 6.1 100 100 Calm 29.94 1014 2 3.21868 0 0
5:53 am 05:53 Mostly Cloudy with Mist and Fog 43 6.1 43 6.1 100 100 Calm 29.93 1013 0.75 1.207005 0 0
6:49 am 06:49 Mostly Cloudy with Mist and Fog 43 6 43 6 100 100 WNW 3 6 29.95 1014 2 3.21868 0 0
6:53 am 06:53 Mostly Cloudy with Mist and Fog 43 6.1 43 6.1 100 100 Calm 29.93 1014 2 3.21868 0 0
6:55 am 06:55 Mostly Cloudy with Mist and Fog 43 6.1 43 6.1 100 100 Calm 29.95 1014 1.5 2.41401 0 0
7:06 am 07:06 Partly Cloudy with Mist and Fog 43 6.1 43 6.1 100 100 Calm 29.95 1014 2 3.21868 0 0
7:14 am 07:14 Mostly Clear with Mist and Fog 44 6.7 43 6.1 96 96 Calm 29.95 1014 6 9.65604 0 0
7:38 am 07:38 Mostly Cloudy with Mist and Fog 45 7.2 45 7.2 100 100 Calm 29.96 1014 1.75 2.816345 0 0
7:41 am 07:41 Mostly Cloudy with Mist and Fog 45 7.2 45 7.2 100 100 Calm 29.96 1014 0.75 1.207005 0 0
7:53 am 07:53 Mostly Cloudy with Fog 44 6.7 44 6.7 100 100 Calm 29.95 1014 0.25 0.402335 0 0
8:53 am 08:53 Mostly Cloudy with Fog 49 9.4 49 9.4 100 100 Calm 29.96 1015 0.25 0.402335 0 0
9:05 am 09:05 Cloudy with Mist and Fog 49 9.4 49 9.4 100 100 Calm 29.97 1015 1.75 2.816345 0 0
9:10 am 09:10 Cloudy with Mist and Fog 50 10 49 9.4 96 96 Calm 29.97 1015 3 4.82802 0 0
9:51 am 09:51 Partly Cloudy 52 11 52 11 100 100 Calm 29.97 1015 10 16.0934 0 0
9:53 am 09:53 Partly Cloudy 51 10.6 51 10.6 100 100 Calm 29.96 1015 10 16.0934 0 0
10:53 am 10:53 Sunny 57 13.9 52 11.1 83 83 Calm 29.96 1015 10 16.0934 0 0
11:53 am 11:53 Sunny 59 15 51 10.6 75 75 VRB 3 6 29.95 1014 10 16.0934 0 0
12:53 pm 12:53 Sunny 60 15.6 50 10 70 70 Calm 29.92 1013 10 16.0934 0 0
1:53 pm 13:53 Sunny 61 16.1 49 9.4 65 65 Calm 29.92 1013 10 16.0934 0 0
2:53 pm 14:53 Sunny 61 16.1 50 10 67 67 VRB 5 7 29.88 1012 10 16.0934 0 0
3:53 pm 15:53 Mostly Sunny 62 16.7 49 9.4 62 62 VRB 6 9 29.85 1011 10 16.0934 0 0
4:53 pm 16:53 Partly Cloudy 65 18.3 49 9.4 56 56 Calm 29.83 1010 10 16.0934 0 0
5:53 pm 17:53 Mostly Sunny 64 17.8 48 8.9 56 56 VRB 3 6 29.83 1010 10 16.0934 0 0
6:53 pm 18:53 Cloudy with Light Rain 57 13.9 47 8.3 69 69 W 12 19 29.84 1011 10 16.0934 0.001 0.001
7:06 pm 19:06 Cloudy with Heavy Rain 53 11.7 49 9.4 86 86 W 7 11 29.85 1011 1.75 2.816345 0.07 1.778
7:16 pm 19:16 Cloudy with Light Rain 52 11.1 50 10 93 93 W 3 6 29.86 1011 3 4.82802 0.09 2.286
7:53 pm 19:53 Cloudy 52 11.1 51 10.6 97 97 Calm 29.86 1011 10 16.0934 0.1 2.54
8:53 pm 20:53 Cloudy with Light Rain 52 11.1 51 10.6 97 97 Calm 29.88 1012 8 12.87472 0.01 0.254
9:53 pm 21:53 Cloudy with Light Rain 52 11.1 51 10.6 97 97 Calm 29.87 1012 10 16.0934 0.001 0.001
10:53 pm 22:53 Cloudy 51 10.6 50 10 96 96 Calm 29.87 1011 10 16.0934 0.001 0.001
11:53 pm 23:53 Cloudy 52 11.1 50 10 93 93 Calm 29.86 1011 10 16.0934 0 0

Powered by AerisWeather